Cleveland, OH

1:04 PM EDT on August 27, 2016 (GMT -0400)
Burke Lakefront

Weather History for KBKL - August, 2014

Change the Weather History Date:

Friday, August 29, 2014

  Actual Average Record
Temperature  
Mean Temperature 66 °F -  
Max Temperature 79 °F 76 °F 89 °F (2007)
Min Temperature 55 °F 62 °F 55 °F (2014)
Cooling Degree Days 2    
Growing Degree Days 16 (Base 50)    
Moisture  
Dew Point 53 °F    
Average Humidity 62    
Maximum Humidity 84    
Minimum Humidity 35    
Precipitation  
Precipitation 0.00 in - - ()
Sea Level Pressure  
Sea Level Pressure 30.11 in    
Wind  
Wind Speed 7 mph (ESE)    
Max Wind Speed 13 mph    
Max Gust Speed 21 mph    
Visibility 10 miles    
Events      
Averages and records for this station are not official NWS values.
T = Trace of Precipitation, MM = Missing Value Source: NWS Daily Summary

Daily Weather History Graph

Daily Weather History Graph

Search for Another Location

Airport or City:

Trip Planner

Search our weather history database for the weather conditions in past years. The results will help you decide how hot, cold, wet, or windy it might be!

Date:

Astronomy

Aug. 29, 2014 Rise Set
Actual Time 6:49 AM EDT 8:04 PM EDT
Civil Twilight 6:21 AM EDT 8:33 PM EDT
Nautical Twilight 5:46 AM EDT 9:07 PM EDT
Astronomical Twilight 5:10 AM EDT 9:43 PM EDT
Moon 10:41 AM EDT (8/29) 9:58 PM EDT (8/29)
Length of Visible Light 14h 12m
Length of Day
13h 14m
Waxing Crescent, 15% of the Moon is Illuminated
Aug 29
Waxing Crescent
Sep 2
First Quarter
Sep 8
Full
Sep 15
Last Quarter
Sep 24
New

Hourly Weather History & Observations

Time (EDT) Temp. Dew Point Humidity Pressure Visibility Wind Dir Wind Speed Gust Speed Precip Events Conditions
12:53 AM 63.0 °F 48.9 °F 60% 30.15 in 10.0 mi ESE 6.9 mph - N/A   Clear
1:53 AM 62.1 °F 50.0 °F 65% 30.13 in 10.0 mi SE 4.6 mph - N/A   Clear
2:53 AM 60.1 °F 50.0 °F 69% 30.13 in 10.0 mi SE 4.6 mph - N/A   Clear
3:53 AM 57.9 °F 51.1 °F 78% 30.12 in 10.0 mi SE 5.8 mph - N/A   Clear
4:53 AM 57.0 °F 50.0 °F 77% 30.13 in 10.0 mi SSE 5.8 mph - N/A   Clear
5:53 AM 55.9 °F 50.0 °F 80% 30.15 in 10.0 mi SSE 8.1 mph - N/A   Clear
6:53 AM 55.9 °F 51.1 °F 84% 30.15 in 10.0 mi ESE 4.6 mph - N/A   Clear
7:53 AM 59.0 °F 51.1 °F 75% 30.16 in 10.0 mi SE 3.5 mph - N/A   Clear
8:53 AM 62.1 °F 48.9 °F 62% 30.15 in 10.0 mi SE 12.7 mph - N/A   Clear
9:53 AM 66.0 °F 48.9 °F 54% 30.14 in 10.0 mi SE 9.2 mph 20.7 mph N/A   Clear
11:53 AM 73.0 °F 51.1 °F 46% 30.13 in 10.0 mi ESE 9.2 mph - N/A   Scattered Clouds
12:53 PM 75.0 °F 51.1 °F 43% 30.11 in 10.0 mi ESE 8.1 mph - N/A   Mostly Cloudy
1:53 PM 78.1 °F 48.0 °F 35% 30.10 in 10.0 mi Variable 6.9 mph - N/A   Clear
2:53 PM 75.0 °F 57.0 °F 53% 30.10 in 10.0 mi North 8.1 mph - N/A   Clear
4:53 PM 75.0 °F 57.9 °F 55% 30.07 in 10.0 mi NNE 10.4 mph - N/A   Clear
5:53 PM 73.9 °F 61.0 °F 64% 30.06 in 10.0 mi NE 11.5 mph - N/A   Clear
6:53 PM 73.0 °F 63.0 °F 71% 30.05 in 10.0 mi NE 10.4 mph - N/A   Clear
7:53 PM 72.0 °F 64.9 °F 78% 30.04 in 10.0 mi NNE 5.8 mph - N/A   Clear
8:53 PM 75.9 °F 52.0 °F 43% 30.05 in 10.0 mi SE 5.8 mph - N/A   Clear
9:53 PM 73.9 °F 53.1 °F 48% 30.05 in 10.0 mi SSE 5.8 mph - N/A   Clear
11:53 PM 71.1 °F 54.0 °F 55% 30.04 in 10.0 mi SSE 11.5 mph - N/A   Clear